Location: Newark
(39.0622°N, 106.5590°E)
Time: 06:45:14
(UTC+00:00)

Courier 1B - Pass Details

Date: 28 January 2020
Orbit: 962 x 1209 km, 28.3° (Epoch: 20 February)

Event Time Altitude Azimuth Distance (km) Brightness Sun altitude
Rises 18:30:48 0° 235° (SW) 3,736 - -62.3°
Reaches altitude 10° 18:33:47 10° 224° (SW) 2,822 - -61.9°
Maximum altitude 18:39:34 29° 167° (SSE) 1,846 - -61.0°
Drops below altitude 10° 18:45:40 10° 110° (ESE) 2,982 - -60.1°
Sets 18:48:54 0° 100° (E) 3,983 - -59.6°
